Regional Weather Roundup
Issued by NWS

Home | Current Version | Previous Version | Text Only | Print | Product List | Glossary On
Versions: 1 2 3 4 5 6 7 8 9 10 11 12 13 14 15 16 17 18 19 20 21 22 23 24 25 26 27 28 29 30 31 32 33 34 35 36 37 38 39 40 41 42 43 44 45 46 47 48 49 50
000
ASUS44 KLUB 230501
RWRTX
WEST TEXAS WEATHER ROUNDUP
NATIONAL WEATHER SERVICE LUBBOCK TX
1200 AM CDT THU OCT 23 2014

NOTE: "FAIR" INDICATES FEW OR NO CLOUDS BELOW 12,000 FEET WITH NO
SIGNIFICANT WEATHER AND/OR OBSTRUCTIONS TO VISIBILITY.

TXZ004-006>008-010-012-014-016-OKZ002-230600-
TEXAS PANHANDLE/OKLAHOMA PANHANDLE

CITY           SKY/WX    TMP DP  RH WIND       PRES   REMARKS
AMARILLO       CLOUDY    61  59  93 S14       30.13S
CANADIAN       CLOUDY    64  61  91 SW15G24   30.09S
DALHART        CLEAR     59  56  89 S10       30.12S FOG
DUMAS          CLOUDY    60  58  94 S13       30.11S FOG
GUYMON         PTCLDY    61  59  93 S10       30.07S
HEREFORD       CLOUDY    63  61  93 SE16      30.14R
PAMPA          CLOUDY    60  58  92 S16       30.12S
$$

TXZ026-029-035-045-048-230600-
SOUTHERN PANHANDLE/SOUTH PLAINS/ROLLING PLAINS

CITY           SKY/WX    TMP DP  RH WIND       PRES   REMARKS
CHILDRESS      CLOUDY    62  60  93 S5        30.13S FOG
LUBBOCK        MOCLDY    59  57  93 SE8       30.13F FOG
SNYDER         CLEAR     58  56  94 S3        30.14F
$$

TXZ052-054-060>062-072-078-127-140-154-169-230600-
PERMIAN BASIN/CONCHO VALLEY/BIG COUNTRY/EDWARDS PLATEAU

CITY           SKY/WX    TMP DP  RH WIND       PRES   REMARKS
ABILENE        CLEAR     62  55  77 SE5       30.11F
BIG SPRING     PTCLDY    60  54  81 S7        30.16S
BRADY          CLEAR     66  52  59 CALM      30.12F
JUNCTION       CLOUDY    63  61  93 CALM      30.13R
MIDLAND        CLEAR     60  52  74 S8        30.14S
ODESSA         CLEAR     59  53  80 S7        30.15R
SAN ANGELO     MOCLDY    61  56  83 SW6       30.13S
SONORA         MOCLDY    59  59 100 CALM      30.20R
WINK           CLEAR     61  55  81 SE12      30.10S
$$

TXZ055-058-074-075-080-082-230600-
FAR WEST/SOUTHWEST MOUNTAINS/TRANS PECOS

CITY           SKY/WX    TMP DP  RH WIND       PRES   REMARKS
ALPINE         PTCLDY    60  57  91 SW5       30.25R
EL PASO        CLEAR     63  55  75 CALM      30.13R
FORT STOCKTON  PTCLDY    62  59  90 S14       30.13R
MARFA          MOCLDY    57  55  94 CALM      30.24S
PECOS          PTCLDY    62  59  88 E7        30.10R
PRESIDIO       FAIR      68  60  76 N8        30.12R
$$

TXZ014-016-019-021>030-083-230600
TEXAS TECH WEST TEXAS MESONET/TEXAS PANHANDLE/NORTHERN SOUTH PLAINS

CITY           SKY/WX    TMP DP  RH WIND       PRES   REMARKS
ABERNATHY 5ENE   N/A     58  56  94 S10       30.16R
AMARILLO 9NNE    N/A     62  59  88 S17       30.11S
AMARILLO 7SSE    N/A     61  59  93 S16       30.15R
AMHERST 1NE      N/A     60  58  94 S10       30.15S
BOOTLEG 11WNW    N/A     57  56  94 S13       30.16S
CANADIAN 6E      N/A     62  59  92 S8        30.09S
CAPROCK CYN SP   N/A     62  59  90 S10       30.14R
CHILDRESS 2NNE   N/A     60  59  97 SE7       30.12S
CLARENDON 2WSW   N/A     61  58  91 S12       30.13S
CLAUDE 12SW      N/A     60  59  96 S9        30.14S
DIMMITT 2NE      N/A     60  58  93 S15       30.14S
FLOYDADA 2NNE    N/A     58  57  96 S10       30.14S
FRIONA 2NE       N/A     60  57  91 S16       30.15S
GOODLETT 3W      N/A     61  58  91 CALM      30.11S
HART 3N          N/A     61  58  92 S10       30.14S
HEREFORD 2NW     N/A     61  57  87 S13       30.14R
MCLEAN 1E        N/A     58  57  98 S14       30.11S
MEMPHIS 1NE      N/A     62  61  96 SE3       30.12S
MULESHOE 2SSW    N/A     60  59  94 S13       30.14S
OLTON 6S         N/A     59  56  89 S15       30.15R
PALO DURO SP     N/A     61  58  91 S7        30.15S
PAMPA 2E         N/A     60  58  94 S12       30.12S
PLAINVIEW 1S     N/A     60  58  92 S13       30.14S
SILVERTON 7ESE   N/A     61  58  90 S12       30.14S
TULIA 2ENE       N/A     61  59  94 S13       30.14S
TURKEY 2WSW      N/A     61  59  93 S6        30.13S
UMBARGER 3NNE    N/A     61  59  92 S14       30.14S
$$

TXZ033>036-039>041-045>048-230600
TEXAS TECH WEST TEXAS MESONET/SOUTH PLAINS

CITY           SKY/WX    TMP DP  RH WIND       PRES   REMARKS
AIKEN 3WSW       N/A     59  58  94 S10       30.15S
ANTON 6SSW       N/A     59  57  95 S10       30.14S
BROWNFIELD 2S    N/A     56  54  94 S8        30.14S
DENVR CTY 7WNW   N/A     56  54  95 SE6       30.15R
GAIL 2ESE        N/A     58  56  94 S5        30.13S
LAMESA 2SE       N/A     56  54  91 S6        30.15S
LEVELLAND 4S     N/A     58  56  92 S7        30.14S
LUBBOCK 3WNW     N/A     59  56  91 S8        30.14S
MORTON 1ENE      N/A     60  58  93 S10       30.15S
ODONNELL 1N      N/A     57  54  88 S7        30.15R
PLAINS 3N        N/A     57  55  95 S9        30.15S
RALLS 1SE        N/A     58  57  97 S6        30.15S
REESE CENTER     N/A     58  56  96 S9        30.14S
SEMINOLE 2NNE    N/A     56  53  89 S6        30.15R
SLATON 2NE       N/A     56  54  95 S5        30.14F
SNYDER 3E        N/A     58  56  96 S5        30.13F
SUNDOWN 8SW      N/A     57  56  95 SE8       30.15R
TAHOKA 3NNE      N/A     57  55  95 S6        30.14S
WOLFFORTH 6SSW   N/A     58  57  98 S7        30.14F
$$

TXZ031-032-036>038-042>044-230600-
TEXAS TECH WEST TEXAS MESONET/ROLLING PLAINS

CITY           SKY/WX    TMP DP  RH WIND       PRES   REMARKS
ASPERMONT 3NE    N/A     60  60  97 SE3       30.12S
FLUVANNA 3WNW    N/A     58  55  90 S8        30.13F
GRAHAM 5SSW      N/A     58  57  96 SE5       30.14R
GUTHRIE 10WSW    N/A     61  59  91 CALM      30.11S
HASKELL 1NW      N/A     62  59  91 NE2       30.11S
JAYTON 1SSE      N/A     61  58  90 S3        30.12F
KNOX CITY 3NW    N/A     62  58  87 CALM      30.12S
LK A HENRY 1NW   N/A     59  57  94 S2        30.13S
NORTHFIELD 1S    N/A     60  59  96 SE3       30.12S
ODELL 4ENE       N/A     61  59  94 E2        30.11F
PADUCAH 10SW     N/A     61  60  96 SE5       30.12S
POST 1NE         N/A     56  55  97 CALM      30.14R
RRING SPRGS 3N   N/A     57  56  97 S5        30.13S
SEYMOUR 3NW      N/A     63  60  88 NE1       30.10F
SPUR 1W          N/A     57  55  94 S1        30.12S
WEINERT 2NNE     N/A     61  59  94 NE1       30.11F
WHITE RVR 6NE    N/A     58  57  96 S3        30.13S
$$

TXZ052-054-060>062-072-078-127-140-154-169-230600-
TEXAS TECH WEST TEXAS MESONET/PERMIAN BASIN/
CONCHO VALLEY/BIG COUNTRY/EDWARDS PLATEAU

CITY           SKY/WX    TMP DP  RH WIND       PRES   REMARKS
COYANOSA 2N      N/A     62  60  91 E9        30.11S
JUNCTION 1SSW    N/A     62  61  97 CALM      30.14R
MERTZON 3NNE     N/A     58  56  94 CALM      30.15S
SAN ANGELO 7NW   N/A     59  55  86 W2        30.14S
STRLNG CT 4WSW   N/A     61  54  78 SE5       30.13F
ST LAWRNCE 5SW   N/A     55  50  82 SE7       30.15S
SWEETWATR 11SW   N/A     58  54  87 S1        30.15R
WALL 1E          N/A     60  54  78 W2        30.14S
$$

TXZ055-058-074-075-080-082-230600-
TEXAS TECH WEST TEXAS MESONET/FAR WEST/SOUTHWEST MOUNTAINS/TRANS PECOS

CITY           SKY/WX    TMP DP  RH WIND       PRES   REMARKS
PRSMN GAP BBNP   N/A     62  60  93 N12       30.16R
GUADLPE MTN NP   N/A     57  51  78 CALM      30.23F
$$



USA.gov is the U.S. government's official web portal to all federal, state and local government web resources and services.